CDT,Max TemperatureF,Mean TemperatureF,Min TemperatureF,Max Dew PointF,MeanDew PointF,Min DewpointF,Max Humidity, Mean Humidity, Min Humidity, Max Sea Level PressureIn, Mean Sea Level PressureIn, Min Sea Level PressureIn, Max VisibilityMiles, Mean VisibilityMiles, Min VisibilityMiles, Max Wind SpeedMPH, Mean Wind SpeedMPH, Max Gust SpeedMPH,PrecipitationIn, CloudCover, Events, WindDirDegrees
2013-4-1,57,46,36,40,30,24,85,50,37,30.16,30.04,29.90,10,8,0,16,5,28,0.00,4,Fog,305
2013-4-2,51,40,28,27,21,16,95,48,25,30.29,30.23,30.16,10,10,10,10,2,,0.00,0,,319
2013-4-3,53,42,30,23,20,17,66,42,27,30.35,30.27,30.21,10,10,10,15,5,22,0.00,0,,51
2013-4-4,46,42,39,46,28,20,100,59,43,30.21,30.09,30.01,10,9,4,8,4,,0.10,5,Rain,54
2013-4-5,67,54,42,40,33,28,74,41,26,30.11,30.07,30.01,10,7,0,9,2,16,0.01,3,Fog,319
2013-4-6,72,54,37,38,35,32,86,50,25,30.15,30.07,29.97,10,10,10,13,3,21,0.00,0,,192
2013-4-7,73,64,56,48,42,37,54,46,31,30.06,30.01,29.98,10,10,10,16,8,23,0.00,4,,205
2013-4-8,75,66,57,55,49,44,64,55,40,30.02,29.99,29.93,10,10,10,18,6,28,0.00,5,,198
2013-4-9,78,70,61,62,56,52,100,63,48,30.13,30.04,30.00,10,10,10,18,5,24,0.00,3,,186
2013-4-10,84,72,61,58,55,53,76,54,35,30.05,29.94,29.81,10,10,7,15,6,21,0.00,1,,195
2013-4-11,71,65,58,65,58,53,100,75,53,29.83,29.73,29.57,10,8,2,15,5,25,1.07,6,Rain-Thunderstorm,198
2013-4-12,59,48,37,51,37,33,100,66,44,30.00,29.85,29.66,10,10,4,18,8,29,0.01,5,Rain,263
2013-4-13,63,48,34,40,36,32,100,62,37,30.11,30.05,30.00,10,10,7,10,3,17,0.00,0,,256
2013-4-14,73,56,40,49,42,38,100,63,29,30.02,29.95,29.87,10,10,10,17,4,29,0.00,2,,154
2013-4-15,73,64,56,55,52,49,78,67,51,30.01,29.96,29.91,10,10,10,9,5,,0.00,5,,150
2013-4-16,81,72,62,65,61,55,81,70,55,30.15,30.09,29.99,10,10,10,13,7,20,0.00,4,,194
2013-4-17,84,75,66,67,62,57,100,71,52,30.15,30.08,29.96,10,10,2,18,3,25,0.14,3,Rain-Thunderstorm,197
2013-4-18,83,74,66,61,56,50,78,55,32,29.95,29.85,29.63,10,10,10,,,,0.00,1,Rain,-1
2013-4-19,72,54,37,66,39,31,100,77,57,30.11,29.89,29.53,10,9,2,20,12,25,1.02,7,Rain,252
2013-4-20,58,45,32,36,30,26,100,58,30,30.35,30.23,30.11,10,10,10,14,3,22,0.00,0,,303
2013-4-21,64,50,36,35,32,28,77,50,30,30.43,30.35,30.28,10,10,7,9,6,,0.00,0,,47
2013-4-22,72,55,38,44,39,34,89,57,30,30.29,30.21,30.11,10,10,10,9,2,,0.00,1,,154
2013-4-23,72,60,47,50,47,40,86,59,44,30.14,30.06,29.95,10,10,10,13,4,21,0.00,1,,195
2013-4-24,65,52,39,56,45,37,100,77,60,30.30,30.05,29.84,10,9,2,16,11,25,0.59,7,Rain-Thunderstorm,195
2013-4-25,62,50,37,41,37,33,100,58,34,30.38,30.33,30.27,10,8,0,12,3,10,0.00,1,Fog,255
2013-4-26,59,48,38,46,40,36,100,71,43,30.46,30.38,30.32,10,10,10,9,2,,0.00,3,Rain,95
2013-4-27,59,54,49,59,52,47,100,93,76,30.36,30.18,29.99,10,8,2,14,4,21,1.55,8,Rain-Thunderstorm,123
2013-4-28,68,61,54,63,55,51,100,79,59,30.00,29.94,29.90,10,9,4,15,8,22,0.69,8,Rain-Thunderstorm,207
2013-4-29,70,61,51,56,52,50,100,74,49,30.04,29.99,29.94,10,8,1,7,0,,0.00,6,,238
2013-4-30,79,65,51,57,53,49,100,58,34,30.06,30.01,29.96,10,8,1,8,1,9,0.00,0,,136